Content
SEND FEEDBACK

Daily
Averages
Monthly
Summary
United States of America

HYANNIS, MASSACHUSETTS


Home > North America > United States > Massachusetts
Elevation: 2 feet     Latitude: 41 40N     Longitude: 070 18W

WEATHER
 
SELECT A DAY
Number of Records: 207,140;   Date Range: 1/1/95 - 7/29/14
 
SHARE

PRINT THIS DATA

[ ← Previous Day ]
WEATHER ALMANAC - DECEMBER 25, 2013
[ Next Day → ]
[ °C ]   °F
Weather ElementAverageHighLow
Temperature22.4 °F28 °F (1:56 am)19.4 °F (10:03 am)
Dewpoint11.5 °F17.1 °F (4:56 pm)6.1 °F (7:56 am)
Humidity63.6 %75 % (4:56 pm)51 % (2:56 am)
Barometer30.43 in30.54 in (6:56 pm)30.20 in (1:56 am)
Wind Speed8 mph15 mph (10:03 am)
Wind Gust27.6 mph (9:56 am)
Weather ElementAverage
Visibility9.2 mi
Wind DirectionWSW (263.8 °)

Weather ElementTotal
Precipitation---
Heating Degree Days41.3 (Base 65)
Averaged from 26 records on December 25, 2013
WEATHER CONDITIONS BREAKOUT
WIND DIRECTION BREAKOUT
WEATHER BY HOUR - DECEMBER 25, 2013
[ °C ]   °F
Local TimeTemperatureDewpointHumidityBarometerVisibilityWind DirectionWind SpeedGust SpeedPrecipitationEventsConditions
1:56 AM28.0 °F16.0 °F61 %30.20 in10.0 miWNW (300°)5.8 mphPartly Cloudy
2:56 AM27.0 °F10.9 °F51 %30.23 in10.0 miWNW (290°)10.4 mphPartly Cloudy
3:56 AM26.1 °F10.9 °F53 %30.25 in10.0 miWNW (290°)12.7 mph20.7 mphScattered Clouds
4:56 AM24.1 °F9.0 °F53 %30.28 in10.0 miWNW (300°)8.1 mph19.6 mphClear
5:56 AM21.9 °F9.0 °F58 %30.31 in10.0 miNW (310°)10.4 mphScattered Clouds
6:56 AM21.9 °F7.0 °F53 %30.35 in10.0 miNW (310°)9.2 mph19.6 mphMostly Cloudy
7:56 AM21.9 °F6.1 °F51 %30.38 in10.0 miNW (320°)12.7 mph25.3 mphMostly Cloudy
8:56 AM21.0 °F7.0 °F55 %30.41 in10.0 miNNW (330°)13.8 mph21.9 mphMostly Cloudy
9:56 AM19.9 °F9.0 °F62 %30.43 in10.0 miNNW (340°)13.8 mph27.6 mphOvercast
10:03 AM19.4 °F8.6 °F63 %30.41 in10.0 miNorth (350°)15.0 mph27.6 mphOvercast
10:56 AM21.0 °F9.0 °F60 %30.44 in10.0 miNorth (10°)12.7 mph20.7 mphOvercast
11:56 AM21.9 °F10.9 °F63 %30.42 in10.0 miNorth (360°)12.7 mph23.0 mph0.00 inSnowLight Snow
12:56 PM21.9 °F12.0 °F66 %30.44 in10.0 miNorth (350°)12.7 mph0.00 inOvercast
1:56 PM21.9 °F12.9 °F68 %30.46 in5.0 miNNW (340°)10.4 mph0.00 inSnowLight Snow
2:56 PM23.0 °F15.1 °F72 %30.48 in6.0 miNorth (350°)8.1 mph0.00 inSnowLight Snow
3:56 PM23.0 °F15.1 °F72 %30.51 in4.0 miNNW (340°)5.8 mph0.00 inSnowLight Snow
4:56 PM24.1 °F17.1 °F75 %30.52 in5.0 miNW (310°)3.5 mph0.00 inSnowLight Snow
5:47 PM21.2 °F14.0 °F74 %30.51 in10.0 miWest (260°)6.9 mph0.00 inOvercast
5:56 PM21.9 °F14.0 °F72 %30.53 in10.0 miWest (260°)5.8 mph0.00 inOvercast
6:30 PM21.2 °F12.2 °F68 %30.53 in10.0 miWest (260°)5.8 mphOvercast
6:56 PM21.9 °F12.9 °F68 %30.54 in10.0 miWest (280°)4.6 mphOvercast
7:56 PM21.9 °F12.0 °F66 %30.54 in10.0 miNW (320°)3.5 mphOvercast
8:56 PM21.9 °F10.9 °F63 %30.53 in10.0 miCalmOvercast
9:56 PM21.0 °F12.0 °F68 %30.52 in10.0 miCalmOvercast
10:56 PM21.9 °F12.9 °F68 %30.52 in10.0 miWest (280°)4.6 mphOvercast
11:56 PM21.0 °F12.9 °F71 %30.50 in10.0 miCalmPartly Cloudy
Hourly data recorded from KHYA, located miles away from Hyannis, Massachusetts







STORIES FROM OUR PARTNERS